Regional Weather Roundup
Issued by NWS

Home | Current Version | Previous Version | Graphics & Text | Print | Product List | Glossary Off
Versions: 1 2 3 4 5 6 7 8 9 10 11 12 13 14 15 16 17 18 19 20 21 22 23 24 25 26 27 28 29 30 31 32 33 34 35 36 37 38 39 40 41 42 43 44 45 46 47 48 49 50

000
ASUS43 KMKX 271100
RWRWI

WISCONSIN REGIONAL WEATHER ROUNDUP
NATIONAL WEATHER SERVICE MILWAUKEE/SULLIVAN WI
600 AM CDT MON MAR 27 2017

NOTE: "FAIR" INDICATES FEW OR NO CLOUDS BELOW 12,000 FEET WITH NO
SIGNIFICANT WEATHER AND/OR OBSTRUCTIONS TO VISIBILITY.

WIZ001-002-006>008-014>016-023>028-271200-
NORTHWEST WISCONSIN

CITY           SKY/WX    TMP DP  RH WIND       PRES   REMARKS
SUPERIOR ARPT  PTCLDY    32  32 100 CALM      29.96R
ASHLAND        CLOUDY    32  31  96 CALM      29.96R
HAYWARD        CLOUDY    35  32  88 CALM      29.95R
SIREN          CLOUDY    34  34  99 CALM      29.96R
CUMBERLAND     LGT RAIN  32  32 100 CALM      29.94S
RICE LAKE      LGT RAIN  35  34  97 CALM      29.96R
CHETEK         CLOUDY    35  34  98 CALM      29.94S
LADYSMITH      CLOUDY    34  33  96 N5        29.94R WCI  30
EAU CLAIRE     CLOUDY    38  35  89 N3        29.93S
MENOMONIE      CLOUDY    37  36  95 NW5       29.94S FOG     WCI  34
NEW RICHMOND   DRIZZLE   35  35 100 NW5       29.97R WCI  31
OSCEOLA        CLOUDY    35  35 100 CALM      29.99S
$$

WIZ003>005-009-010-017-018-271200-
NORTH CENTRAL WISCONSIN

CITY           SKY/WX    TMP DP  RH WIND       PRES   REMARKS
MANITOWISH WTR CLOUDY    31  31 100 N5        29.90S FOG     WCI  26
ARBOR VITAE    CLOUDY    34  33  96 N3        29.90R FOG
WOODRUFF       CLOUDY    34  33  96 N3        29.90R FOG
RHINELANDER    CLOUDY    34  33  96 VRB3      29.91R
EAGLE RIVER    CLOUDY    32  32 100 NW6       29.90R WCI  26
LAND O LAKES   CLOUDY    32  32 100 NW3       29.90S
PHILLIPS       DRIZZLE   32  32 100 CALM      29.91R
TOMAHAWK       LGT RAIN  32  32  99 CALM      29.91R
MEDFORD        CLOUDY    33  32  96 N5        29.91R WCI  28
MERRILL        CLOUDY    34  34 100 N5        29.92R WCI  30
$$

WIZ029-030-035-036-043>047-271200-
CENTRAL WISCONSIN

CITY           SKY/WX    TMP DP  RH WIND       PRES   REMARKS
WAUSAU         CLOUDY    36  34  92 N6        29.89S WCI  31
MOSINEE        CLOUDY    37  37 100 N7        29.91S FOG     WCI  32
MARSHFIELD     CLOUDY    37  36  96 N9        29.89S FOG     WCI  30
STEVENS POINT  CLOUDY    37  37 100 NW3       29.90S
WAUPACA        CLOUDY    40  39  97 CALM      29.89F FOG
WAUTOMA        CLOUDY    39  39 100 W5        29.92R
WISC RAPIDS    CLOUDY    39  39 100 NE3       29.91S
CAMP DOUGLAS   CLOUDY    39  39 100 W5        29.90S
$$

WIZ011>013-019>022-031-037>040-048>050-271200-
NORTHEAST WISCONSIN

CITY           SKY/WX    TMP DP  RH WIND       PRES   REMARKS
ANTIGO         CLOUDY    34  34 100 N6        29.90R FOG     WCI  29
SHAWANO        CLOUDY    39  37  94 SW3       29.91R
OCONTO         CLOUDY    36  35  96 CALM      29.90R
STURGEON BAY   CLOUDY    36  36 100 W7        29.91R FOG     WCI  30
GREEN BAY      CLOUDY    38  38 100 NW5       29.91R WCI  34
MANITOWOC      NOT AVBL
APPLETON       FOG       37  37 100 VRB3      29.88F VSB 1/2
CLINTONVILLE   CLOUDY    36  36 100 CALM      29.91R FOG
OSHKOSH        CLOUDY    38  37  97 NW5       29.90R WCI  34
$$

WIZ032>034-041-042-053>061-271200-
SOUTHWEST WISCONSIN

CITY           SKY/WX    TMP DP  RH WIND       PRES   REMARKS
LA CROSSE      CLOUDY    42  41  96 CALM      29.92S FOG
SPARTA         CLOUDY    38  38 100 CALM      29.92S FOG
VIROQUA        CLOUDY    39  39 100 NW3       29.90S VSB 1/4
BOSCOBEL       CLOUDY    42  41  96 CALM      29.93R FOG
PRAIRIE DU CHI CLOUDY    41  40  94 CALM      29.92S FOG
PLATTEVILLE    CLOUDY    41  41 100 W3        29.90S
$$

WIZ056-057-062-063-064-067-068-271200-
SOUTH CENTRAL WISCONSIN

CITY           SKY/WX    TMP DP  RH WIND       PRES   REMARKS
REEDSBURG      CLOUDY    39  39 100 CALM      29.90S FOG
BARABOO/DELLS  CLOUDY    39  38  97 CALM      29.90F FOG
LONE ROCK      CLOUDY    42  40  92 CALM      29.90F FOG
MINERAL POINT  CLOUDY    41  41 100 N3        29.89F FOG
MADISON        CLOUDY    40  39  97 N3        29.89F
MIDDLETON      CLOUDY    42  42 100 N5        29.90F
WATERTOWN      CLOUDY    39  39 100 NW6       29.90S
MONROE         CLOUDY    41  41 100 CALM      29.89S FOG
JANESVILLE     CLOUDY    43  43 100 CALM      29.90S
$$

WIZ051-052-058>065-066-070>072-271200-
SOUTHEAST WISCONSIN

CITY           SKY/WX    TMP DP  RH WIND       PRES   REMARKS
MILWAUKEE      CLOUDY    43  38  82 NW6       29.89S
WAUKESHA       CLOUDY    37  37 100 NW7       29.91R WCI  32
MILWAUKEE/TIMM CLOUDY    39  36  87 W5        29.91R
RACINE         CLOUDY    42  39  89 NW5       29.91F
KENOSHA        CLOUDY    43  41  93 NW5       29.90S
FOND DU LAC    CLOUDY    39  36  89 CALM      29.91R
SHEBOYGAN      CLOUDY    38  36  92 NW6       29.90R WCI  33
WEST BEND      CLOUDY    37  37 100 W5        29.90R WCI  34
JUNEAU         FOG       38  38  99 SW7       29.93R VSB 3/4 WCI  33
$$

LSZ147-162-271200-
LAKE SUPERIOR

STATION/POSITION TIME  TEMP    WIND        PRES    WAVE
                       AIR SEA DIR/SP/G            HT/PER
                 (UTC) (F)     (DEG/KT/KT) (MB)    (FT/S)
DEVILS ISLAND    1000   33     240/  9/ 10 1015.0R
PORT WING        1030   34     230/  1/  3 1014.6S
SAXON HARBOR     1040   33     360/  3/  5 1014.2R
$$

LMZ867-665-643>646-271200-
LAKE MICHIGAN

STATION/POSITION TIME  TEMP    WIND        PRES    WAVE
                       AIR SEA DIR/SP/G            HT/PER
                 (UTC) (F)     (DEG/KT/KT) (MB)    (FT/S)
CHAMBERS ISLAND  1040   35     290/  3/  6 1012.2R
NORTHPORT PIER   1040   34     290/  7/ 10 1012.5R
SISTER BAY       0951   34        CALM       N/A
KEWAUNEE LAKESHO 1030   37     280/  2/  5 1012.0R
SHEBOYGAN LAKESH 1000   39     340/  6/  7 1012.4F
PORT WASHINGTON  1030   41     290/  3/  6 1013.5R
MILWAUKEE LAKESH 1030   42     270/  5/  6   N/A
KENOSHA   LAKESH 1000   44     290/  6/  9 1012.9
$$

TC  - TEMPERATURE IN CELSIUS
VSB - VISIBILITY IN STATUTE MILES
WCI - WIND CHILL INDEX
HX  - HEAT INDEX




USA.gov is the U.S. government's official web portal to all federal, state and local government web resources and services.